Location: Esp�s Alto
(42.4476°N, 0.5876°E)
Time: 02:09:03
(UTC+00:00)

Daily predictions for brighter satellites

Satellite Brightness Start Highest point End
(mag) Time Altitude Azimuth Time Altitude Azimuth Time Altitude Azimuth
CENTAUR R/B 4.3 02:09:11 33° NNE 02:10:11 34° NE 02:17:47 10° E
ATLAS 2AS CENTAUR R/B 3.7 02:33:41 49° ENE 02:33:41 49° ENE 02:39:56 10° NE
Cosmos 2237 Rocket 4.4 02:33:53 21° ENE 02:33:53 21° ENE 02:36:41 10° NE
USA 267 3.5 03:01:21 10° NE 03:06:48 63° ENE 03:06:48 63° ENE
IDEFIX/ARIANE 42P 3.8 03:08:09 10° NNE 03:12:28 37° E 03:12:28 37° E
NOSS 3-2 (C) 3.9 03:25:52 68° NW 03:27:07 90° SW 03:35:37 10° SSE
SL-16 R/B 4.1 03:23:23 11° SSE 03:27:35 26° ESE 03:32:11 10° NE
Cosmos 2278 Rocket 3.2 03:40:15 34° SSE 03:40:15 34° SSE 03:43:21 10° SSE
USA 234 3.7 03:34:41 10° ESE 03:41:02 56° NNE 03:43:48 34° NNW
NOSS 3-4 (A) 3.3 03:42:54 80° NNW 03:42:54 80° NNW 03:49:01 10° NE
NOSS 3-4 (C) 3.3 03:42:58 81° NNW 03:42:58 81° NNW 03:49:09 10° NE
BREEZE-M R/B 4.4 03:43:48 44° N 03:43:58 44° N 03:52:15 10° ENE
RESURS DK-1 3.9 03:44:13 33° ESE 03:44:13 33° ESE 03:47:48 10° NE
Cosmos 2333 Rocket 3.6 03:51:35 25° NNW 03:51:35 25° NNW 03:54:29 10° N
NOSS 0 Rocket 3.9 03:49:59 64° NW 03:49:59 64° NW 03:55:41 10° NNE
Cosmos 614 Rocket 4.2 03:53:33 61° N 03:53:33 61° N 03:57:53 10° NNE
ATLAS 3B R/B 2.6 03:50:37 40° NNW 03:53:20 87° NE 04:00:15 10° SE
Cosmos 1140 Rocket 3.5 03:56:21 67° SSE 03:56:57 77° ESE 04:02:07 10° NNE
USA 32 4.0 03:57:49 73° NNW 03:57:49 73° NNW 04:02:37 10° N
Cosmos 1954 Rocket 4.4 03:58:01 30° S 04:00:31 60° ESE 04:05:39 10° NNE
Cosmos 2219 Rocket 3.7 04:03:30 22° NNW 04:03:30 22° NNW 04:06:14 10° N
CENTAUR R/B 3.1 03:56:28 26° NW 04:01:43 79° WSW 04:10:26 10° SSE
ADEOS 3.4 04:00:26 10° N 04:05:39 74° WNW 04:05:55 72° W
BREEZE-M DEB (TANK) 3.5 04:07:06 36° N 04:07:06 36° N 04:09:12 10° NE
Cosmos 2184 Rocket 3.8 04:04:20 26° SSW 04:08:06 78° W 04:14:26 10° N
BREEZE-M DEB (TANK) 4.2 04:06:00 33° SSW 04:08:16 48° SSE 04:11:38 10° E
PAYLOAD A 4.2 04:05:14 10° NNE 04:10:07 67° ESE 04:15:10 10° S
BREEZE-M DEB (TANK) 4.4 04:11:57 22° E 04:11:57 22° E 04:12:59 10° E
Meteor 1-4 Rocket 3.9 04:16:23 29° NNE 04:16:23 29° NNE 04:18:14 10° NNE
Cosmos 2237 Rocket 2.4 04:15:45 49° WNW 04:15:52 50° WNW 04:21:26 10° NNE
Nadezhda 3 Rocket 4.2 04:11:01 10° N 04:17:24 73° E 04:23:42 10° SSE
Cosmos 1437 Rocket 4.4 04:13:59 10° SSE 04:17:24 34° E 04:20:51 10° NNE
ATLAS 2AS CENTAUR R/B 3.5 04:21:09 35° WNW 04:23:26 42° NW 04:30:59 10° NNE
CZ-2C R/B 2.6 04:20:11 10° NNE 04:25:24 76° ESE 04:30:29 10° S
Cosmos 1726 3.4 04:22:37 10° N 04:26:07 40° ENE 04:29:36 10° SSE
Cosmos 2058 Rocket 4.0 04:22:38 10° N 04:26:56 48° ENE 04:31:15 10° SSE
Cosmos 1356 3.8 04:24:29 10° N 04:27:53 63° ENE 04:31:19 10° SSE
Cosmos 2369 Rocket 4.3 04:26:10 10° N 04:30:43 25° NE 04:35:14 10° ESE
Cosmos 1980 4.3 04:33:41 34° WNW 04:34:04 34° WNW 04:39:12 10° N
Cosmos 2074 Rocket 4.2 04:33:23 24° SW 04:36:50 45° WNW 04:42:47 10° N
Cosmos 1295 Rocket 4.5 04:32:00 10° S 04:38:11 84° E 04:44:19 10° N
SJ-6F 4.3 04:34:26 10° N 04:38:34 71° WNW 04:42:15 13° SSW
COSMOS 2428 4.4 04:41:33 15° NW 04:41:33 15° NW 04:44:19 10° N
Cosmos 1707 4.1 04:45:27 24° NW 04:45:27 24° NW 04:47:28 10° NNW
Cosmos 1953 2.8 04:45:08 38° WSW 04:45:08 38° WSW 04:48:17 10° SSW
Cosmos 1892 Rocket 3.4 04:41:39 10° SSW 04:46:04 76° W 04:50:28 10° N
H-2A R/B 2.9 04:42:11 10° N 04:46:09 41° WNW 04:47:22 33° WSW
Meteor 1-31 Rocket 2.6 04:46:24 10° N 04:50:11 70° WNW 04:53:57 10° SSW
USA 267 3.9 04:44:37 10° NE 04:50:36 40° NNW 04:54:09 22° WNW
Cosmos 1674 3.0 04:48:35 10° S 04:52:15 67° E 04:55:57 10° NNE
IDEFIX/ARIANE 42P 3.4 04:48:03 10° N 04:52:26 28° WNW 04:53:16 26° W
Cosmos 1943 Rocket 3.5 04:47:45 10° NNW 04:53:06 40° ENE 04:58:24 10° SE
BREEZE-M DEB (TANK) 3.7 04:53:43 18° NNW 04:54:02 19° N 04:55:56 10° NE
Cosmos 676 Rocket 4.4 04:53:53 20° WSW 04:57:02 41° WNW 05:02:00 10° N
CZ-4B R/B 2.7 04:53:54 10° N 04:57:48 60° WNW 05:01:29 10° SSW
Cosmos 1606 Rocket 3.9 04:53:47 10° NNW 04:57:48 38° W 05:01:48 10° SSW
Cosmos 1484 Rocket 2.9 05:01:52 10° NNE 05:05:41 76° ESE 05:09:33 10° S
GP-B 3.0 05:03:18 10° S 05:07:41 63° W 05:12:07 10° N
Cosmos 1626 4.4 05:07:18 10° SSE 05:10:30 28° E 05:13:44 10° NNE
SL-16 R/B 2.5 05:05:58 10° SW 05:11:24 47° WNW 05:16:53 10° NNE
ALOS 3.3 05:08:00 10° NNE 05:12:34 51° E 05:17:06 10° S
Meteor 1-24 Rocket 3.9 05:11:19 10° S 05:17:04 82° E 05:23:04 10° NNE
Cosmos 1626 Rocket 3.5 05:15:48 10° S 05:20:05 86° ESE 05:24:27 10° N
Cosmos 2278 Rocket 4.0 05:22:15 11° WSW 05:22:15 11° WSW 05:22:52 10° WSW
Cosmos 1300 4.3 05:17:45 10° N 05:21:20 38° ENE 05:24:54 10° SSE
ASTEX 1 4.3 05:17:10 10° SSE 05:21:54 52° E 05:26:39 10° N
RESURS DK-1 3.6 05:20:11 16° W 05:22:09 23° NW 05:25:29 10° N
USA 234 3.6 05:17:49 10° SSE 05:24:05 48° SW 05:30:23 10° WNW
Cosmos 2228 4.1 05:22:20 10° NW 05:25:38 22° W 05:28:53 10° SW
Cosmos 2297 4.2 05:20:41 10° NW 05:25:56 38° WSW 05:31:09 10° S
Milstar 3 Cent rocket 4.1 05:22:59 10° SW 05:26:23 17° S 05:29:24 10° SE
Meteor 2-17 Rocket 4.5 05:21:48 10° SSW 05:27:46 59° WNW 05:33:44 10° N
COSMO-SKYMED 1 2.6 05:24:40 10° S 05:28:58 63° W 05:33:17 10° NNW
Helios 1A Rocket 3.0 05:25:05 10° NNE 05:29:16 85° ESE 05:33:24 10° SSW
Meteor PRIRODA 4.5 05:31:52 10° N 05:35:11 30° WNW 05:38:28 10° SW
Milstar 3 4.4 05:30:14 10° SW 05:35:40 25° S 05:41:27 10° ESE
Cosmos 1850 Rocket 4.2 05:30:47 10° SW 05:35:46 47° WNW 05:40:47 10° N
SL-14 R/B 3.3 05:35:41 10° S 05:39:37 85° E 05:43:31 10° N
Cosmos 2218 Rocket 4.0 05:34:51 10° SSW 05:41:11 69° W 05:47:30 10° N
ATLAS 3B R/B 4.0 05:38:55 10° WNW 05:43:12 18° WSW 05:47:34 10° SSW
Cosmos 1943 3.6 05:37:37 10° SSW 05:43:16 72° ESE 05:48:57 10° NNE
Cosmos 44 Rocket 4.2 05:40:27 10° NW 05:44:26 28° WSW 05:48:22 10° S
Gblst 52 Del rocket 4.4 05:44:31 10° WNW 05:50:00 59° SW 05:56:00 10° SE
CENTAUR R/B 4.4 05:46:15 10° WNW 05:51:34 19° WSW 05:57:01 10° SW
